Total_Precipitation_Accumulation
2.04 2.07 1.60 1.00 0.80 0.66 0.61 0.64 0.58 0.50 0.47 0.64 0.70 0.65 0.68 0.65 0.63 0.66 0.67 0.69 0.82 1.01 1.16 1.36 1.57 1.96 2.20 2.50 2.84 2.96 3.23 3.43 3.57 3.68 3.66 3.44 3.16 2.94 2.79 2.74 2.69 2.50 2.32 2.25
1.95 1.57 0.89 0.71 0.72 0.73 0.75 0.80 0.63 0.53 0.48 0.61 0.65 0.61 0.66 0.72 0.71 0.63 0.60 0.62 0.70 0.87 1.01 1.16 1.38 1.74 1.94 2.13 2.37 2.59 2.81 3.07 3.26 3.29 3.30 3.37 3.37 3.13 2.86 2.77 2.75 2.73 2.63 2.47
1.39 0.93 0.65 0.76 0.86 0.93 0.84 0.79 0.67 0.62 0.57 0.66 0.68 0.69 0.63 0.68 0.69 0.67 0.64 0.63 0.69 0.84 0.89 0.99 1.17 1.53 1.76 1.88 2.06 2.27 2.51 2.67 2.78 3.07 3.30 3.35 3.55 3.47 3.04 2.70 2.53 2.64 2.74 2.75
1.15 0.69 0.71 0.88 0.84 0.88 0.92 0.59 0.60 0.67 0.91 1.01 0.76 0.93 0.68 0.63 0.62 0.67 0.68 0.70 0.77 0.85 0.90 0.97 1.06 1.28 1.51 1.61 1.78 2.01 2.32 2.55 2.58 2.83 3.01 2.97 2.89 2.95 2.75 2.56 2.55 2.62 2.70 2.76
1.20 0.78 0.79 0.95 0.71 0.73 0.76 0.56 0.68 0.78 0.97 1.08 0.74 0.88 0.80 0.59 0.68 0.72 0.71 0.76 0.82 0.79 0.83 0.95 1.00 1.08 1.25 1.37 1.48 1.69 2.07 2.38 2.51 2.58 2.70 2.82 2.81 2.78 2.83 2.76 2.69 2.60 2.50 2.56
0.89 0.79 0.89 0.82 0.61 0.69 0.78 0.90 1.03 1.08 1.42 1.49 0.69 0.76 0.82 0.70 0.74 0.70 0.65 0.70 0.76 0.72 0.78 0.86 0.89 0.94 1.12 1.18 1.20 1.37 1.62 2.06 2.43 2.53 2.54 2.58 2.60 2.55 2.61 2.71 2.67 2.64 2.50 2.38
1.08 0.89 0.82 0.83 1.00 1.01 1.23 1.81 2.29 2.20 2.05 1.15 0.42 0.59 0.84 0.73 0.64 0.68 0.66 0.63 0.67 0.72 0.74 0.78 0.84 0.95 1.03 1.10 1.08 1.14 1.27 1.60 2.05 2.30 2.32 2.34 2.39 2.39 2.34 2.44 2.58 2.56 2.44 2.28
1.17 1.05 0.75 0.86 1.18 1.26 1.20 1.57 1.83 1.49 0.98 0.55 0.38 0.59 0.77 0.67 0.58 0.55 0.49 0.48 0.55 0.64 0.66 0.70 0.73 0.81 0.86 0.91 0.96 1.04 1.12 1.26 1.52 1.81 1.97 2.10 2.19 2.21 2.09 2.07 2.28 2.38 2.27 2.18
0.99 0.83 0.51 0.62 0.77 0.95 1.16 1.23 1.08 1.31 0.90 0.63 0.50 0.53 0.56 0.45 0.45 0.46 0.43 0.42 0.48 0.51 0.53 0.57 0.60 0.66 0.67 0.71 0.79 0.88 0.92 1.01 1.18 1.42 1.62 1.82 1.91 2.00 2.01 1.95 2.03 2.26 2.26 2.10
0.97 1.00 0.58 0.63 0.89 1.01 1.06 1.04 1.25 1.88 1.50 0.89 0.52 0.46 0.58 0.51 0.48 0.52 0.48 0.43 0.43 0.42 0.45 0.50 0.54 0.60 0.63 0.64 0.60 0.63 0.74 0.90 1.02 1.12 1.34 1.52 1.68 1.77 1.83 1.88 1.89 1.97 2.04 2.01
0.86 1.20 0.85 0.84 1.12 1.08 1.07 1.29 1.45 1.53 1.29 1.15 0.79 0.66 0.61 0.54 0.51 0.52 0.51 0.45 0.42 0.40 0.43 0.47 0.48 0.54 0.63 0.65 0.58 0.54 0.63 0.77 0.87 0.92 1.08 1.23 1.36 1.52 1.62 1.66 1.68 1.71 1.76 1.84
0.84 1.36 1.08 0.74 0.65 0.71 0.90 1.05 1.29 1.75 1.36 1.06 0.90 0.74 0.54 0.47 0.46 0.48 0.51 0.49 0.45 0.44 0.45 0.46 0.45 0.49 0.59 0.67 0.66 0.59 0.61 0.67 0.77 0.82 0.91 1.08 1.15 1.27 1.42 1.53 1.52 1.51 1.54 1.58
1.16 1.65 1.51 1.06 0.92 0.92 1.06 0.94 1.00 1.41 1.74 1.38 1.10 0.75 0.48 0.38 0.36 0.41 0.47 0.49 0.48 0.48 0.50 0.48 0.48 0.49 0.56 0.65 0.71 0.65 0.63 0.64 0.69 0.79 0.80 0.93 1.05 1.10 1.16 1.27 1.37 1.42 1.45 1.49
1.43 1.67 1.38 1.15 1.09 1.11 1.04 0.83 0.95 1.69 2.15 1.29 0.75 0.53 0.39 0.38 0.43 0.45 0.46 0.49 0.53 0.54 0.54 0.53 0.57 0.56 0.59 0.63 0.70 0.67 0.68 0.65 0.63 0.73 0.78 0.79 0.93 1.02 1.05 1.07 1.14 1.22 1.27 1.33
1.16 1.51 1.01 0.66 0.54 0.72 0.77 0.76 0.88 1.27 1.32 1.26 0.75 0.49 0.45 0.47 0.54 0.53 0.50 0.47 0.48 0.49 0.50 0.52 0.55 0.59 0.61 0.61 0.67 0.68 0.69 0.69 0.62 0.66 0.74 0.77 0.82 0.90 0.99 1.05 1.08 1.14 1.18 1.23
0.95 1.25 1.01 0.73 0.45 0.55 0.64 0.62 0.66 0.78 0.85 0.87 0.65 0.62 0.53 0.50 0.46 0.45 0.45 0.43 0.45 0.47 0.49 0.49 0.47 0.52 0.55 0.62 0.68 0.72 0.72 0.71 0.67 0.64 0.67 0.73 0.80 0.84 0.89 0.97 1.04 1.07 1.14 1.21
0.88 1.12 1.29 0.91 0.51 0.65 0.80 0.73 0.72 0.74 0.75 0.76 0.80 0.73 0.59 0.53 0.49 0.49 0.47 0.43 0.44 0.43 0.42 0.43 0.44 0.48 0.51 0.55 0.64 0.72 0.74 0.71 0.70 0.68 0.67 0.70 0.76 0.84 0.88 0.91 1.00 1.12 1.18 1.31
0.61 0.97 1.44 1.08 0.74 0.95 0.77 0.59 0.61 0.65 0.68 0.72 0.70 0.60 0.55 0.53 0.51 0.50 0.47 0.43 0.41 0.40 0.39 0.38 0.40 0.41 0.42 0.46 0.54 0.65 0.70 0.71 0.71 0.71 0.75 0.77 0.78 0.87 0.97 0.99 1.02 1.12 1.21 1.32
0.35 0.82 1.40 1.24 0.94 0.64 0.43 0.41 0.55 0.64 0.68 0.66 0.54 0.44 0.42 0.41 0.42 0.44 0.40 0.38 0.39 0.40 0.42 0.41 0.41 0.43 0.42 0.45 0.52 0.63 0.69 0.70 0.71 0.73 0.77 0.81 0.84 0.94 1.05 1.05 1.05 1.10 1.16 1.22
0.34 0.69 1.36 1.30 1.11 0.63 0.44 0.28 0.31 0.50 0.73 0.54 0.46 0.45 0.44 0.44 0.52 0.47 0.38 0.35 0.38 0.37 0.38 0.43 0.45 0.44 0.48 0.51 0.54 0.63 0.73 0.81 0.85 0.85 0.87 0.91 0.99 1.09 1.13 1.10 1.07 1.04 1.04 1.04
0.53 0.96 1.26 1.09 1.04 0.56 0.39 0.25 0.26 0.68 0.83 0.45 0.43 0.46 0.48 0.52 0.54 0.46 0.36 0.33 0.38 0.40 0.40 0.43 0.47 0.50 0.54 0.56 0.58 0.62 0.70 0.85 0.94 0.97 0.98 0.99 1.05 1.11 1.13 1.08 1.00 0.96 0.91 0.91
0.50 0.71 0.79 0.84 1.09 0.79 0.41 0.33 0.60 0.77 0.48 0.41 0.42 0.45 0.48 0.47 0.40 0.35 0.36 0.35 0.35 0.36 0.39 0.44 0.52 0.56 0.56 0.61 0.68 0.69 0.74 0.83 0.89 0.94 0.95 0.95 0.96 1.00 1.05 1.05 0.98 0.91 0.90 0.89
0.53 0.67 0.72 0.76 0.85 0.72 0.56 0.60 0.62 0.52 0.47 0.41 0.42 0.43 0.43 0.42 0.40 0.35 0.33 0.33 0.36 0.38 0.41 0.47 0.57 0.62 0.63 0.64 0.69 0.74 0.73 0.73 0.77 0.84 0.88 0.87 0.84 0.85 0.89 0.93 0.93 0.93 0.91 0.89
0.48 0.41 0.53 0.64 0.64 0.56 0.52 0.46 0.42 0.42 0.45 0.41 0.39 0.40 0.42 0.44 0.41 0.38 0.35 0.35 0.34 0.36 0.40 0.46 0.52 0.57 0.60 0.61 0.62 0.66 0.62 0.61 0.64 0.70 0.77 0.80 0.80 0.79 0.78 0.80 0.86 0.91 0.92 0.90
0.52 0.46 0.51 0.58 0.51 0.42 0.41 0.41 0.41 0.39 0.35 0.32 0.31 0.32 0.37 0.40 0.39 0.38 0.39 0.38 0.38 0.39 0.42 0.46 0.52 0.57 0.59 0.57 0.57 0.58 0.57 0.56 0.59 0.61 0.65 0.69 0.74 0.78 0.80 0.81 0.86 0.93 0.94 0.99
0.44 0.48 0.58 0.64 0.50 0.51 0.52 0.44 0.39 0.37 0.36 0.34 0.32 0.31 0.30 0.33 0.38 0.35 0.37 0.36 0.38 0.42 0.43 0.44 0.47 0.53 0.60 0.58 0.55 0.55 0.55 0.56 0.60 0.63 0.63 0.67 0.73 0.76 0.78 0.80 0.84 0.94 0.96 1.00